Location: Saginaw
(43.4195°N, 83.9508°W)
Time: 11:15:10
(UTC-04:00)

Daily predictions for brighter satellites

Satellite Brightness Start Highest point End
(mag) Time Altitude Azimuth Time Altitude Azimuth Time Altitude Azimuth
Cosmos 2278 Rocket 2.5 20:18:35 10° SSW 20:24:15 76° WNW 20:29:58 10° NNE
FREGAT/IRIS 3.0 20:25:39 10° S 20:28:42 70° W 20:31:46 10° NNW
Cosmos 1733 4.5 20:27:17 10° SE 20:30:14 21° E 20:33:13 10° NE
Cosmos 1076 Rocket 3.7 20:26:59 10° N 20:31:08 50° ENE 20:35:15 10° SSE
CZ-3B DEB 3.4 20:20:27 10° WSW 20:31:53 62° NW 20:37:03 10° NE
Cosmos 1470 3.7 20:33:45 10° SSE 20:37:07 27° E 20:40:30 10° NNE
Helios 1A 3.9 20:37:11 10° SE 20:40:49 30° ENE 20:44:29 10° N
Cosmos 1447 Rocket 4.5 20:36:05 10° N 20:42:12 66° E 20:48:18 10° SSE
Lacrosse 5 3.2 20:38:07 10° WSW 20:42:54 40° NNW 20:47:42 10° NE
Cosmos 2297 3.7 20:38:02 10° SSW 20:43:44 74° ESE 20:49:29 10° NNE
Timation 2 Rocket 4.0 20:37:57 10° NNW 20:44:16 68° ENE 20:50:18 10° SE
Okean 3 Rocket 3.8 20:40:03 10° NNW 20:44:27 74° W 20:48:52 10° S
H-2A R/B 2.7 20:44:26 10° SSE 20:48:19 79° ENE 20:52:18 10° N
Cosmos 2173 Rocket 4.4 20:43:27 10° SSE 20:49:07 40° E 20:54:55 10° NNE
Cosmos 372 Rocket 3.9 20:44:40 10° S 20:49:43 67° ESE 20:54:51 10° NNE
Cosmos 158 Rocket 4.0 20:44:45 10° NNW 20:49:55 76° ENE 20:55:11 10° SSE
COSMOS 2487 2.5 20:47:48 10° NNW 20:51:24 86° WSW 20:54:57 10° SSE
Cosmos 2251 Rocket 4.4 20:47:24 10° N 20:52:09 31° ENE 20:56:03 14° ESE
USA 215 4.4 20:48:01 10° E 20:52:23 19° ESE 20:56:44 10° SSE
SJ-6B 4.1 20:49:24 10° S 20:52:56 41° W 20:56:31 10° NNW
Cosmos 2082 Rocket 2.3 20:47:50 10° NNW 20:53:34 86° WSW 20:59:12 10° SSE
Cosmos 1340 Rocket 3.3 20:50:01 10° N 20:53:49 40° ENE 20:57:34 10° SE
Cosmos 1269 Rocket 4.1 20:48:47 10° NNW 20:54:06 84° WSW 20:59:23 10° SSE
SAR-Lupe-4 4.0 20:52:01 10° SE 20:55:23 41° ENE 20:58:48 10° N
Cosmos-2242 3.0 20:57:43 10° S 21:01:53 57° E 21:06:04 10° NNE
Cosmos 1766 Rocket 3.5 20:59:00 10° N 21:03:31 82° E 21:07:59 10° S
BREEZE-M DEB (TANK) 3.5 21:01:17 10° SSW 21:04:30 44° SE 21:13:57 10° ENE
ALOS 3.5 21:04:18 10° S 21:08:44 43° W 21:13:11 10° NNW
Cosmos 1271 Rocket 2.7 21:09:15 10° S 21:13:15 75° E 21:17:17 10° NNE
SL-14 R/B 4.1 21:10:32 10° NNE 21:14:01 31° ENE 21:15:15 25° ESE
SAR-Lupe-1 4.1 21:11:15 15° SSE 21:14:02 60° ENE 21:17:35 10° N
GP-B 3.0 21:09:53 10° S 21:14:18 79° E 21:18:45 10° N
Cosmos 1674 2.9 21:11:41 10° NNW 21:15:28 71° W 21:19:15 10° S
Cosmos 482 Debris 2.3 21:14:57 10° WNW 21:16:39 77° WNW 21:16:39 77° WNW
Cosmos 494 Rocket 4.2 21:11:54 10° N 21:16:52 48° ENE 21:19:57 22° SE
Spot 2 Rocket 4.0 21:12:03 10° S 21:17:06 63° WSW 21:22:11 10° NNW
Meteor 1-4 Rocket 4.2 21:15:13 10° SW 21:18:26 36° WNW 21:21:42 10° N
Cosmos 2221 4.5 21:21:18 14° ENE 21:21:18 14° ENE 21:22:33 10° NE
Spot 1 4.3 21:15:46 10° SSE 21:20:30 82° ENE 21:25:33 10° NNW
Cosmos 2016 Rocket 4.1 21:15:29 10° SSE 21:21:26 51° E 21:27:21 10° NNE
Cosmos 389 Rocket 3.6 21:24:14 26° ENE 21:24:14 26° ENE 21:26:29 10° NNE
Cosmos 1328 4.0 21:19:39 10° N 21:23:30 46° ENE 21:25:05 29° SE
USA 186 1.4 21:22:52 32° SSW 21:23:38 56° WSW 21:25:49 10° NNW
Resurs 01 Rocket 2.8 21:21:13 10° S 21:25:25 43° W 21:29:40 10° NNW
Cosmos 1184 Rocket 2.8 21:24:06 10° N 21:27:28 60° ENE 21:28:29 38° SE
Cosmos 2058 3.8 21:25:21 10° NNE 21:29:00 29° ENE 21:29:16 29° E
Cosmos 1953 4.1 21:25:29 10° SW 21:29:13 35° WNW 21:32:58 10° N
CZ-4C R/B 3.7 21:25:14 10° SSE 21:33:11 14° ENE 21:34:05 10° ENE
Cosmos 1725 Rocket 4.3 21:26:21 11° SSE 21:31:54 42° E 21:37:40 10° NNE
GPS 2-05 Rocket1 4.4 21:29:47 10° WSW 21:32:38 23° S 21:32:57 22° S
Cosmos 1743 Rocket 3.5 21:30:02 10° N 21:34:30 83° E 21:37:42 19° S
Cosmos 1500 Rocket 3.5 21:30:49 10° N 21:35:06 60° E 21:36:54 32° SSE
Envisat 2.9 21:31:29 18° SSE 21:35:19 75° ENE 21:40:25 10° N
Cosmos 1626 4.0 21:33:36 10° NNE 21:35:12 17° NE 21:35:12 17° NE
SeaSat 1 4.0 21:34:55 10° S 21:39:21 33° WSW 21:43:49 10° NW
Cosmos 2100 Rocket 4.2 21:35:27 10° SSW 21:41:46 76° W 21:48:11 10° N
CZ-4B DEB 2.9 21:41:50 40° S 21:42:45 66° WSW 21:45:51 10° NNW
Cosmos 1939 Rocket 2.8 21:41:38 35° SSE 21:43:21 77° ENE 21:47:30 10° N
Cosmos 2369 Rocket 2.6 21:42:50 32° SE 21:44:09 36° ESE 21:49:15 10° NE
SL-08 R/B 4.5 21:38:21 10° S 21:44:38 66° E 21:51:00 10° NNE
ERS-1 Rocket 3.2 21:43:13 37° ESE 21:44:47 50° ENE 21:49:39 10° N
Geosat 4.0 21:41:23 10° NNE 21:46:27 86° WNW 21:51:28 10° SSW
Lacrosse 5 rocket 2.5 21:45:20 10° WNW 21:48:50 32° SW 21:50:09 25° SSW
Helios 1B rocket 2.9 21:44:55 10° N 21:49:00 61° WNW 21:53:02 10° SSW
Cosmos 2151 2.9 21:46:34 10° N 21:50:49 65° E 21:51:27 55° SE
Cosmos 1833 Rocket 4.4 21:49:55 10° NW 21:54:45 30° WSW 21:59:35 10° SSW
Tsikada Rocket 4.0 21:48:35 10° N 21:54:46 64° E 21:57:31 34° SSE
ISS -2.6 21:51:58 10° W 21:55:05 40° NNW 21:55:50 34° NNE
H-2A R/B 3.5 21:59:47 23° ENE 21:59:47 23° ENE 22:03:28 10° NNE
Cosmos 1943 Rocket 4.3 22:09:02 11° NE 22:09:02 11° NE 22:09:21 10° NE
NOAA 11 4.4 22:04:43 47° E 22:05:27 51° ENE 22:10:46 10° N
ATLAS 5 CENTAUR R/B 3.4 22:02:28 10° WSW 22:06:53 36° NW 22:11:42 10° NNE
Cosmos 1802 Rocket 4.4 22:00:53 10° SSW 22:06:55 61° W 22:13:04 10° N
Cosmos 1842 Rocket 4.1 22:06:02 10° SSW 22:10:23 57° W 22:14:43 10° N
Cosmos 1816 Rocket 4.4 22:15:12 10° N 22:21:26 84° E 22:23:12 50° SSE
Lacrosse 5 4.2 22:23:33 10° NW 22:27:06 19° N 22:30:38 10° NE
MetOp-A 3.9 22:28:11 77° SE 22:28:33 85° ENE 22:33:56 10° NNW
SPOT 5 3.0 22:31:28 73° ENE 22:31:28 73° ENE 22:36:37 10° N
USA 245 4.2 22:32:34 70° E 22:32:55 72° ENE 22:39:15 10° N
Terra 3.7 22:35:22 19° NNE 22:35:22 19° NNE 22:37:16 10° NNE
Cosmos 2233 Rocket 3.8 22:33:30 65° SSE 22:34:27 81° E 22:40:36 10° N
YAOGAN 6 4.0 22:35:30 38° WNW 22:35:30 38° WNW 22:38:20 10° NNW
ARGOS 3.1 22:36:23 69° NE 22:36:23 69° NE 22:41:22 10° N
USA 215 3.1 22:29:32 10° NE 22:36:05 73° SE 22:42:36 10° SW
Sich 1 4.4 22:37:53 10° N 22:40:21 32° N 22:40:21 32° N
SPOT 1/Viking Rocket 4.0 22:44:19 53° NNE 22:44:19 53° NNE 22:48:31 10° N
CZ-3B DEB 3.8 22:39:07 10° WNW 22:43:55 20° NNW 22:45:40 16° NNE
Cosmos 2221 4.0 22:58:07 36° NW 22:58:07 36° NW 23:01:13 10° N
MOS 1-B Rocket 4.3 22:58:15 73° SE 22:58:58 81° ENE 23:05:47 10° NNW
USA 267 3.4 23:08:51 58° NE 23:09:03 59° NNE 23:15:28 10° NW
H-2A R/B 4.4 23:13:53 19° N 23:13:53 19° N 23:15:04 10° N
Cosmos 2297 Rocket 4.4 23:13:47 10° NNE 23:15:58 14° NE 23:15:58 14° NE
CZ-4C R/B 2.9 23:17:57 51° NNW 23:17:57 51° NNW 23:23:27 10° NNE
Cosmos 2369 Rocket 3.6 23:23:52 14° WSW 23:28:09 35° NW 23:33:17 10° N
H-2A R/B 3.5 23:40:24 35° NW 23:40:24 35° NW 23:43:40 10° NNW
Cosmos 2227 Rocket 4.1 23:39:06 10° N 23:41:45 21° NNE 23:41:45 21° NNE
Cosmos 1943 Rocket 3.8 23:50:28 30° N 23:50:28 30° N 23:53:35 10° NNE
